STARLINK-30161, 57476

Orbit data source: Space-Track

STARLINK-30161, 57476 is a payload satellite owned by SpaceX/Seattle (US) in LEO that was launched on Fri, 28 Jul 2023 UTC via an FALCON 9 launch vehicle from the Air Force Eastern Test Range (AFETR). Payload-class satellites include a variety of spacecraft equipped with specific instruments for various scientific and technological missions. These include communications satellites like Starlink; space stations such as the ISS; scientific satellites like the Hubble; Earth observation satellites from companies like Planet Labs, Umbra, and HawkEye 360; GPS; miniature CubeSats for education and research; and military/defense satellites.

Loading next visibility...
Identifier
57476, 2023-107V
Orbit
LEO
Country
Flag of USUS
Related business
Manufacturer
SpaceX/Seattle
Mission
Operational Commercial Communications
Bus & Motor
STARLINK V2M, Unknown motor
Mass
730 kg wet, ~700 kg dry
Launch date (UTC)
2023-07-28 (3 years ago)
Launch vehicle
FALCON 9
Launch site
Air Force Eastern Test Range (AFETR)
Object type
Payload
Rocket body
Debris
Shape & HBR
Box + 2 Pan, 17.7 m
Radar Cross Section
33.884 m², Large (>1 m²)

Expand to show TLE details & history
Last TLE update: 2 days ago

TLE from 2 days ago
0 STARLINK-30161
1 57476U 23107V   26171.17049305 -.00000363  00000-0 -36652-5 0  9999
2 57476  43.0064 117.0481 0001566 256.5519 103.5158 15.27572674160827
Epoch: 2026-06-20T04:05Z
TLE epoch observation values (Epoch: 2026-06-20T04:05:30.599Z)
Latitude
-0.00004°
Longitude
147.28161°
Altitude
483.098 km
Speed
7.626 km/s
True Right ascension
07h 48m 11s
True Declination
0° 00' 00"
Sunlit
Object was in daylight at epoch
Visualization orbit readout
Latitude
Unknown
Longitude
Unknown
Altitude
Unknown
Speed
Unknown
Apparent Right ascension
Unknown
Apparent Declination
Unknown
Sunlit
N/A
Visualization observer readout
Local Sidereal Time
00:25:40
Azimuth
Unknown
Elevation
Unknown
Doppler factor
Unknown
Orbital elements
Apogee altitude
486.09 km
Perigee altitude
483.94 km
Semi-major axis
6,863.152 km
Eccentricity
0.00016
Inclination
43.0064°
RAAN
117.0481°
Arg. of periapsis
256.5519°
True anomaly
103.53325°
Mean anomaly
103.5158°
Eccentric anomaly
103.52452°
Mean motion
3.81731 °/min
Orbital period
94.31 mins
BSTAR
-0.0000036652
Loading maneuver chart data...
Computing Atmospheric mass density...

Documentation

Showing up to 5 results
|